Terug naar catalogus

STARLINK-32496

ActiefCommunicatieVLEO
NORAD 62051·PAYLOAD·🇺🇸 United States

Gelanceerd Nov 21, 2024 vanaf Cape Canaveral Space Force Station

Loading…

Volgende Passages (komende 24 uur)

TLE

VersSource: CelesTrak SupGP

Epoch: Sep 14, 2026, 22:20 UTC

1 62051C 24216V   26257.93104167  .00031200  00000+0  11302-2 0  2573
2 62051  42.9993 275.0169 0001456 266.6870  24.0649 15.27560647    12

Volg STARLINK-32496 in realtime met AllMySat

Download on the App Store